Skip Page Navigation
NASA JPL Caltech
NASA Logo - Jet Propulsion Laboratory + View the NASA Portal
+ Near-Earth Object (NEO) Program
Search JPL
JPL Home Earth Solar System Stars & Galaxies Technology
JPL Solar System Dynamics
BODIES ORBITS EPHEMERIDES TOOLS PHYSICAL DATA DISCOVERY FAQ SITE MAP
JPL Small-Body Database Browser
Search: [ help ]  
14943 (1995 VD19)
Classification: Main-belt Asteroid          SPK-ID: 2014943
Ephemeris | Orbit Diagram | Orbital Elements | Physical Parameters | Discovery Circumstances | Close-Approach Data ]

[ show orbit diagram ]
Orbital Elements at Epoch 2457600.5 (2016-Jul-31.0) TDB
Reference: JPL 10 (heliocentric ecliptic J2000)
 Element Value Uncertainty (1-sigma)   Units 
e .140766072334907 6.0095e-08  
a 2.282291076086517 1.5555e-08 au
q 1.961021925380809 1.3594e-07 au
i 4.951185423188657 6.0988e-06 deg
node 272.1329956136375 6.6856e-05 deg
peri 296.8207490989558 7.1859e-05 deg
M 262.7240098721334 3.2002e-05 deg
tp 2457940.797010851995
(2017-Jul-06.29701085)
0.0001141 JED
period 1259.374731068644
3.45
1.2875e-05
3.525e-08
d
yr
n .2858561404471895 2.9223e-09 deg/d
Q 2.603560226792224 1.7744e-08 au
  Orbit Determination Parameters
   # obs. used (total)      1140  
   data-arc span      7398 days (20.25 yr)  
   first obs. used      1995-11-15  
   last obs. used      2016-02-16  
   planetary ephem.      DE431  
   SB-pert. ephem.      SB431-BIG16  
   condition code      0  
   fit RMS      .57641  
   data source      ORB  
   producer      Otto Matic  
   solution date      2016-Feb-25 19:02:41  

Additional Information
 Earth MOID = .96111 au 
 Jupiter MOID = 2.3857 au 
 T_jup = 3.586 
[ show covariance matrix ]

Ephemeris | Orbit Diagram | Orbital Elements | Physical Parameters | Discovery Circumstances | Close-Approach Data ]

Physical Parameter Table
Parameter Symbol Value Units Sigma Reference Notes
absolute magnitude H 14.5 mag n/a MPO347643  

14943 (1995 VD19)          Discovered 1995-Nov-15 by Beijing Schmidt CCD Asteroid Program at Xinglong
Reference: 20000523/Numbers.arcLast Updated: 2004-04-19

[ show close-approach data ]
Alternate Designations
 1995 VD19 = 1997 OF = 1998 WD21 
Ephemeris | Orbit Diagram | Orbital Elements | Physical Parameters | Discovery Circumstances | Close-Approach Data ]
ABOUT SSD CREDITS/AWARDS PRIVACY/COPYRIGHT GLOSSARY LINKS
FirstGov 2016-Apr-30 16:55 UT
(server date/time)  
NASA Home Page
Site Manager:   Ryan S. Park
Webmaster  Alan B. Chamberlin